Time,TemperatureF,DewpointF,PressureIn,WindDirection,WindDirectionDegrees,WindSpeedMPH,WindSpeedGustMPH,Humidity,HourlyPrecipIn,Conditions,Clouds,dailyrainin,SolarRadiationWatts/m^2,SoftwareType,DateUTC
2013-09-30 00:01:00,48.0,47.0,-100.00,WNW,292,11.0,32.0,95,0.15,,,0.59,0.000000,,2013-09-30 07:01:00,
2013-09-30 00:12:00,48.0,47.0,-100.00,WNW,292,11.0,32.0,95,0.15,,,0.59,0.000000,,2013-09-30 07:12:00,
2013-09-30 00:42:00,45.0,41.0,-100.00,West,277,21.0,41.0,85,0.08,,,0.67,0.000000,,2013-09-30 07:42:00,
2013-09-30 00:53:00,45.0,41.0,-100.00,West,277,21.0,41.0,85,0.08,,,0.67,0.000000,,2013-09-30 07:53:00,
2013-09-30 01:02:00,45.0,41.0,-100.00,West,277,21.0,41.0,85,0.08,,,0.67,0.000000,,2013-09-30 08:02:00,
2013-09-30 01:12:00,45.0,41.0,-100.00,West,277,21.0,41.0,85,0.08,,,0.67,0.000000,,2013-09-30 08:12:00,
2013-09-30 01:42:00,44.0,38.0,-100.00,WNW,287,20.0,36.0,79,0.00,,,0.67,0.000000,,2013-09-30 08:42:00,
2013-09-30 01:52:00,44.0,38.0,-100.00,WNW,287,20.0,36.0,79,0.00,,,0.67,0.000000,,2013-09-30 08:52:00,
2013-09-30 02:02:00,44.0,38.0,-100.00,WNW,287,20.0,36.0,79,0.00,,,0.67,0.000000,,2013-09-30 09:02:00,
2013-09-30 02:11:00,44.0,38.0,-100.00,WNW,287,20.0,36.0,79,0.00,,,0.67,0.000000,,2013-09-30 09:11:00,
2013-09-30 02:42:00,45.0,37.0,-100.00,West,281,22.0,37.0,73,0.00,,,0.67,0.000000,,2013-09-30 09:42:00,
2013-09-30 02:53:00,45.0,37.0,-100.00,West,281,22.0,37.0,73,0.00,,,0.67,0.000000,,2013-09-30 09:53:00,
2013-09-30 03:03:00,45.0,37.0,-100.00,West,281,22.0,37.0,73,0.00,,,0.67,0.000000,,2013-09-30 10:03:00,
2013-09-30 03:13:00,45.0,37.0,-100.00,West,281,22.0,37.0,73,0.00,,,0.67,0.000000,,2013-09-30 10:13:00,
2013-09-30 03:43:00,45.0,36.0,-100.00,West,276,22.0,40.0,71,0.00,,,0.67,0.000000,,2013-09-30 10:43:00,
2013-09-30 03:53:00,45.0,36.0,-100.00,West,276,22.0,40.0,71,0.00,,,0.67,0.000000,,2013-09-30 10:53:00,
2013-09-30 04:02:00,45.0,36.0,-100.00,West,276,22.0,40.0,71,0.00,,,0.67,0.000000,,2013-09-30 11:02:00,
2013-09-30 04:12:00,45.0,36.0,-100.00,West,276,22.0,40.0,71,0.00,,,0.67,0.000000,,2013-09-30 11:12:00,
2013-09-30 04:43:00,46.0,36.0,-100.00,West,277,17.0,35.0,69,0.00,,,0.67,0.000000,,2013-09-30 11:43:00,
2013-09-30 04:52:00,46.0,36.0,-100.00,West,277,17.0,35.0,69,0.00,,,0.67,0.000000,,2013-09-30 11:52:00,
2013-09-30 05:02:00,46.0,36.0,-100.00,West,277,17.0,35.0,69,0.00,,,0.67,0.000000,,2013-09-30 12:02:00,
2013-09-30 05:12:00,46.0,36.0,-100.00,West,277,17.0,35.0,69,0.00,,,0.67,0.000000,,2013-09-30 12:12:00,
2013-09-30 05:42:00,46.0,37.0,-100.00,West,274,17.0,42.0,72,0.00,,,0.67,0.000000,,2013-09-30 12:42:00,
2013-09-30 05:52:00,46.0,37.0,-100.00,West,274,17.0,42.0,72,0.00,,,0.67,0.000000,,2013-09-30 12:52:00,
2013-09-30 06:01:00,46.0,37.0,-100.00,West,274,17.0,42.0,72,0.00,,,0.67,0.000000,,2013-09-30 13:01:00,
2013-09-30 06:11:00,46.0,37.0,-100.00,West,274,17.0,42.0,72,0.00,,,0.67,0.000000,,2013-09-30 13:11:00,
2013-09-30 06:42:00,46.0,37.0,-100.00,West,264,20.0,35.0,71,0.00,,,0.66,0.000000,,2013-09-30 13:42:00,
2013-09-30 06:52:00,46.0,37.0,-100.00,West,264,20.0,35.0,71,0.00,,,0.66,0.000000,,2013-09-30 13:52:00,
2013-09-30 07:01:00,46.0,37.0,-100.00,West,264,20.0,35.0,71,0.00,,,0.66,0.000000,,2013-09-30 14:01:00,
2013-09-30 07:11:00,46.0,37.0,-100.00,West,264,20.0,35.0,71,0.00,,,0.66,0.000000,,2013-09-30 14:11:00,
2013-09-30 07:42:00,46.0,39.0,-100.00,West,264,20.0,35.0,77,0.01,,,0.64,3.000000,,2013-09-30 14:42:00,
2013-09-30 07:53:00,46.0,39.0,-100.00,West,264,20.0,35.0,77,0.01,,,0.64,3.000000,,2013-09-30 14:53:00,
2013-09-30 08:02:00,46.0,39.0,-100.00,West,264,20.0,35.0,77,0.01,,,0.64,3.000000,,2013-09-30 15:02:00,
2013-09-30 08:11:00,46.0,39.0,-100.00,West,264,20.0,35.0,77,0.01,,,0.64,3.000000,,2013-09-30 15:11:00,
2013-09-30 08:14:00,45.0,40.0,-100.00,West,265,16.0,32.0,83,0.02,,,0.65,45.000000,,2013-09-30 15:14:00,
2013-09-30 08:45:00,45.0,40.0,-100.00,West,265,16.0,32.0,83,0.02,,,0.65,45.000000,,2013-09-30 15:45:00,
2013-09-30 08:54:00,45.0,40.0,-100.00,West,265,16.0,32.0,83,0.02,,,0.65,45.000000,,2013-09-30 15:54:00,
2013-09-30 09:04:00,45.0,40.0,-100.00,West,265,16.0,32.0,83,0.02,,,0.65,45.000000,,2013-09-30 16:04:00,
2013-09-30 09:44:00,49.0,42.0,-100.00,West,271,14.0,30.0,77,0.00,,,0.64,304.000000,,2013-09-30 16:44:00,
2013-09-30 09:53:00,49.0,42.0,-100.00,West,271,14.0,30.0,77,0.00,,,0.64,304.000000,,2013-09-30 16:53:00,
2013-09-30 10:03:00,49.0,42.0,-100.00,West,271,14.0,30.0,77,0.00,,,0.64,304.000000,,2013-09-30 17:03:00,
2013-09-30 10:13:00,49.0,42.0,-100.00,West,271,14.0,30.0,77,0.00,,,0.64,304.000000,,2013-09-30 17:13:00,
2013-09-30 10:43:00,49.0,45.0,-100.00,West,277,13.0,28.0,85,0.00,,,0.63,268.000000,,2013-09-30 17:43:00,
2013-09-30 10:53:00,49.0,45.0,-100.00,West,277,13.0,28.0,85,0.00,,,0.63,268.000000,,2013-09-30 17:53:00,
2013-09-30 11:01:00,49.0,45.0,-100.00,West,277,13.0,28.0,85,0.00,,,0.63,268.000000,,2013-09-30 18:01:00,
2013-09-30 11:12:00,49.0,45.0,-100.00,West,277,13.0,28.0,85,0.00,,,0.63,268.000000,,2013-09-30 18:12:00,
2013-09-30 11:42:00,46.0,43.0,-100.00,West,271,14.0,26.0,90,0.05,,,0.66,400.000000,,2013-09-30 18:42:00,
2013-09-30 11:53:00,46.0,43.0,-100.00,West,271,14.0,26.0,90,0.05,,,0.66,400.000000,,2013-09-30 18:53:00,
2013-09-30 12:02:00,46.0,43.0,-100.00,West,271,14.0,26.0,90,0.05,,,0.66,400.000000,,2013-09-30 19:02:00,
2013-09-30 12:12:00,46.0,43.0,-100.00,West,271,14.0,26.0,90,0.05,,,0.66,400.000000,,2013-09-30 19:12:00,
2013-09-30 12:42:00,51.0,46.0,-100.00,WNW,282,11.0,24.0,82,0.03,,,0.67,595.000000,,2013-09-30 19:42:00,
2013-09-30 12:53:00,51.0,46.0,-100.00,WNW,282,11.0,24.0,82,0.03,,,0.67,595.000000,,2013-09-30 19:53:00,
2013-09-30 13:02:00,51.0,46.0,-100.00,WNW,282,11.0,24.0,82,0.03,,,0.67,595.000000,,2013-09-30 20:02:00,
2013-09-30 13:12:00,51.0,46.0,-100.00,WNW,282,11.0,24.0,82,0.03,,,0.67,595.000000,,2013-09-30 20:12:00,
2013-09-30 13:43:00,53.0,43.0,-100.00,WNW,285,11.0,26.0,70,0.00,,,0.66,737.000000,,2013-09-30 20:43:00,
2013-09-30 13:53:00,53.0,43.0,-100.00,WNW,285,11.0,26.0,70,0.00,,,0.66,737.000000,,2013-09-30 20:53:00,
2013-09-30 14:02:00,53.0,43.0,-100.00,WNW,285,11.0,26.0,70,0.00,,,0.66,737.000000,,2013-09-30 21:02:00,
2013-09-30 14:11:00,53.0,43.0,-100.00,WNW,285,11.0,26.0,70,0.00,,,0.66,737.000000,,2013-09-30 21:11:00,
2013-09-30 14:44:00,51.0,44.0,-100.00,WNW,286,12.0,31.0,77,0.00,,,0.65,722.000000,,2013-09-30 21:44:00,
2013-09-30 14:54:00,51.0,44.0,-100.00,WNW,286,12.0,31.0,77,0.00,,,0.65,722.000000,,2013-09-30 21:54:00,
2013-09-30 15:03:00,51.0,44.0,-100.00,WNW,286,12.0,31.0,77,0.00,,,0.65,722.000000,,2013-09-30 22:03:00,
2013-09-30 15:13:00,51.0,44.0,-100.00,WNW,286,12.0,31.0,77,0.00,,,0.65,722.000000,,2013-09-30 22:13:00,
2013-09-30 15:44:00,53.0,41.0,-100.00,West,274,15.0,31.0,64,0.00,,,0.63,625.000000,,2013-09-30 22:44:00,
2013-09-30 15:54:00,53.0,41.0,-100.00,West,274,15.0,31.0,64,0.00,,,0.63,625.000000,,2013-09-30 22:54:00,
2013-09-30 16:03:00,53.0,41.0,-100.00,West,274,15.0,31.0,64,0.00,,,0.63,625.000000,,2013-09-30 23:03:00,
2013-09-30 16:12:00,53.0,41.0,-100.00,West,274,15.0,31.0,64,0.00,,,0.63,625.000000,,2013-09-30 23:12:00,
2013-09-30 16:43:00,52.0,42.0,-100.00,WNW,282,11.0,27.0,68,0.00,,,0.60,496.000000,,2013-09-30 23:43:00,
2013-09-30 16:54:00,52.0,42.0,-100.00,WNW,282,11.0,27.0,68,0.00,,,0.60,496.000000,,2013-09-30 23:54:00,
2013-09-30 17:02:00,52.0,42.0,-100.00,WNW,282,11.0,27.0,68,0.00,,,0.60,496.000000,,2013-10-01 00:02:00,
2013-09-30 17:12:00,52.0,42.0,-100.00,WNW,282,11.0,27.0,68,0.00,,,0.60,496.000000,,2013-10-01 00:12:00,
2013-09-30 17:43:00,51.0,42.0,-100.00,West,274,11.0,26.0,70,0.00,,,0.57,345.000000,,2013-10-01 00:43:00,
2013-09-30 17:52:00,51.0,42.0,-100.00,West,274,11.0,26.0,70,0.00,,,0.57,345.000000,,2013-10-01 00:52:00,
2013-09-30 18:02:00,51.0,42.0,-100.00,West,274,11.0,26.0,70,0.00,,,0.57,345.000000,,2013-10-01 01:02:00,
2013-09-30 18:12:00,51.0,42.0,-100.00,West,274,11.0,26.0,70,0.00,,,0.57,345.000000,,2013-10-01 01:12:00,
2013-09-30 18:42:00,46.0,41.0,-100.00,West,276,9.0,20.0,82,0.00,,,0.55,127.000000,,2013-10-01 01:42:00,
2013-09-30 18:52:00,46.0,41.0,-100.00,West,276,9.0,20.0,82,0.00,,,0.55,127.000000,,2013-10-01 01:52:00,
2013-09-30 19:02:00,46.0,41.0,-100.00,West,276,9.0,20.0,82,0.00,,,0.55,127.000000,,2013-10-01 02:02:00,
2013-09-30 19:12:00,46.0,41.0,-100.00,West,276,9.0,20.0,82,0.00,,,0.55,127.000000,,2013-10-01 02:12:00,
2013-09-30 19:43:00,45.0,39.0,-100.00,SW,230,8.0,19.0,78,0.00,,,0.54,13.000000,,2013-10-01 02:43:00,
2013-09-30 19:52:00,45.0,39.0,-100.00,SW,230,8.0,19.0,78,0.00,,,0.54,13.000000,,2013-10-01 02:52:00,
2013-09-30 20:02:00,45.0,39.0,-100.00,SW,230,8.0,19.0,78,0.00,,,0.54,13.000000,,2013-10-01 03:02:00,
2013-09-30 20:12:00,45.0,39.0,-100.00,SW,230,8.0,19.0,78,0.00,,,0.54,13.000000,,2013-10-01 03:12:00,
2013-09-30 20:14:00,45.0,39.0,-100.00,West,269,7.0,18.0,78,0.00,,,0.53,0.000000,,2013-10-01 03:14:00,
2013-09-30 20:44:00,45.0,39.0,-100.00,West,269,7.0,18.0,78,0.00,,,0.53,0.000000,,2013-10-01 03:44:00,
2013-09-30 20:55:00,45.0,39.0,-100.00,West,269,7.0,18.0,78,0.00,,,0.53,0.000000,,2013-10-01 03:55:00,
2013-09-30 21:04:00,45.0,39.0,-100.00,West,269,7.0,18.0,78,0.00,,,0.53,0.000000,,2013-10-01 04:04:00,